Wind_Speed
15 15 13 12 10 8 5 6 4 5 5 10 13 17 17 17 19 20 20 24 27 29 33 37 40 39 38 38 39 44 44 43 41 34 32 34 39 38 34 29 25 22 16
17 15 15 12 10 10 6 6 2 3 9 11 13 16 19 21 20 21 22 26 28 31 34 38 41 38 38 37 42 46 46 43 40 34 35 38 38 37 33 28 23 19 15
17 16 15 13 11 11 8 6 2 1 10 12 16 21 23 22 23 22 23 26 29 31 34 38 41 39 40 40 45 49 48 44 40 33 36 38 40 33 34 30 26 22 19
18 16 15 13 13 10 9 6 4 5 13 17 16 18 20 25 22 22 23 26 29 31 34 38 41 41 41 42 47 51 50 45 41 34 38 41 36 34 36 34 28 24 19
18 17 17 16 12 10 10 7 6 12 16 14 14 17 19 23 24 23 24 26 29 31 34 38 42 41 41 42 47 52 53 48 44 36 40 41 32 32 34 33 26 22 19
20 18 17 16 13 13 10 9 8 15 14 13 14 16 19 24 25 24 25 26 29 31 34 37 41 41 40 41 46 51 54 51 47 39 40 43 33 33 35 29 24 23 21
22 18 16 16 14 14 12 11 11 16 14 11 10 17 18 23 26 27 27 27 29 31 33 36 40 41 40 40 45 50 54 55 49 40 41 46 37 32 38 29 24 24 25
24 20 17 17 16 14 13 13 15 16 13 10 13 14 17 21 25 27 28 27 28 30 32 35 39 40 39 38 43 48 52 56 51 43 41 48 45 31 36 30 26 25 23
21 21 19 20 17 16 15 15 17 16 12 8 9 11 15 18 23 26 28 28 29 30 31 33 37 40 39 38 41 46 49 54 52 48 42 46 50 39 40 39 32 29 28
17 18 18 21 19 18 17 18 18 16 11 7 5 9 15 17 20 23 28 31 31 29 30 32 35 39 39 37 39 43 46 50 53 50 44 42 47 45 37 41 37 33 33
14 18 19 22 21 20 20 19 19 15 8 3 3 8 12 13 17 21 23 29 33 30 29 32 34 37 38 37 37 41 43 46 50 50 48 43 45 47 43 41 39 34 30
12 16 21 24 22 22 21 23 20 14 8 3 5 9 13 10 16 17 18 25 30 35 29 30 32 35 38 38 36 37 41 43 46 49 49 44 40 40 41 44 44 35 28
15 18 22 23 23 23 24 23 19 13 10 7 9 12 13 13 13 17 19 23 27 32 35 29 30 32 36 36 35 34 37 40 42 45 47 43 38 35 38 42 40 44 45
17 18 20 24 25 26 27 23 19 15 13 10 12 13 11 10 11 11 15 21 23 27 31 32 28 30 34 35 35 33 34 37 38 41 43 44 40 36 35 39 41 42 41
20 20 21 25 27 30 28 25 22 19 16 18 17 18 11 13 16 17 13 19 24 28 28 31 29 28 30 32 33 31 30 33 34 36 40 42 41 35 33 37 38 38 41
24 22 25 28 31 31 29 28 25 22 22 23 24 23 12 8 16 24 17 16 21 25 28 28 29 26 27 30 31 31 28 29 31 32 34 39 40 39 33 32 34 34 37
27 29 31 33 34 32 32 31 30 27 27 27 27 27 28 29 25 18 17 14 20 23 27 31 28 27 24 27 30 31 28 26 27 29 31 32 35 37 37 33 31 30 31
29 32 36 36 36 36 34 34 32 32 31 31 32 33 31 33 27 21 22 26 19 21 23 30 27 25 24 22 26 28 27 24 23 25 26 28 30 33 36 36 33 30 29
34 38 39 40 39 39 38 38 38 38 37 38 38 41 39 44 28 27 24 24 28 30 27 28 26 21 24 22 21 25 26 25 22 22 22 24 26 28 31 34 35 33 30
41 39 41 44 44 44 45 45 45 44 43 42 42 42 44 38 37 33 31 32 36 35 31 31 23 22 24 22 19 20 24 23 22 18 19 20 22 24 26 28 31 33 33
47 41 44 46 46 47 48 49 48 47 47 47 51 47 45 45 44 42 41 41 44 43 38 39 40 35 18 20 19 16 20 22 21 19 14 16 17 20 22 25 27 28 31
50 47 43 52 52 52 50 48 47 47 52 55 54 55 52 50 48 46 43 41 42 43 45 41 46 45 23 23 20 18 17 19 20 18 17 14 14 14 17 18 20 24 24
37 43 43 50 53 53 48 39 41 41 45 50 51 51 56 58 54 47 46 46 50 52 50 50 51 41 29 22 24 20 19 18 20 19 18 14 13 12 13 15 16 17 19
45 43 46 47 41 35 37 39 42 45 49 52 52 51 47 51 53 48 47 54 42 44 39 39 34 31 27 23 25 24 20 21 20 20 18 18 12 12 12 11 12 15 15
42 40 42 40 43 43 41 44 48 49 47 43 39 40 44 45 47 50 51 42 41 39 34 31 30 33 31 28 26 26 24 24 26 22 20 19 18 13 11 12 11 11 13
59 46 54 53 51 48 48 47 48 42 38 35 34 34 36 36 38 39 39 36 35 33 35 26 34 38 38 35 33 28 28 29 30 28 23 19 19 17 12 10 10 11 11
Wind_Direction
225 226 228 227 231 239 249 267 316 349 56 74 54 39 29 18 11 3 1 360 2 359 1 357 356 360 357 355 355 354 356 356 355 352 352 350 345 348 352 349 338 330 335
225 224 226 229 228 231 231 256 281 345 90 74 58 45 32 20 10 3 359 4 0 360 360 358 358 1 360 358 358 357 1 2 1 359 358 353 354 359 358 0 2 3 8
224 228 235 236 229 233 227 246 227 50 96 80 62 45 30 19 15 4 360 3 1 1 359 359 0 3 2 1 0 360 6 7 6 4 360 360 2 8 9 13 14 18 19
222 225 230 228 225 224 231 237 196 141 108 81 62 43 28 17 12 6 1 3 1 0 1 1 2 5 5 1 3 3 9 10 11 10 8 7 8 13 14 14 14 22 32
218 223 224 225 224 213 224 221 195 141 110 89 69 50 31 17 12 6 1 2 2 2 2 2 4 7 5 3 3 4 10 13 16 18 14 15 19 14 13 18 21 28 29
220 222 218 227 225 218 217 208 195 141 118 93 66 47 35 14 13 4 0 1 3 4 3 4 4 6 6 5 6 5 9 14 20 23 23 26 21 22 17 17 26 37 43
228 227 226 226 228 225 217 204 184 144 123 100 64 43 25 14 13 9 3 0 4 4 3 5 5 6 8 8 8 7 8 14 20 24 25 23 22 26 22 29 39 49 38
241 240 239 237 231 231 221 198 183 147 121 99 69 40 15 6 8 13 6 1 4 6 4 5 5 5 8 10 9 9 9 14 19 23 26 24 24 33 29 33 40 38 32
236 235 234 237 234 226 221 198 177 146 129 101 60 31 15 1 358 14 12 5 4 6 5 5 7 5 7 11 12 10 10 13 17 23 25 27 25 26 30 35 36 33 24
226 230 227 228 228 220 214 196 166 141 128 101 48 5 4 359 350 4 19 16 6 4 7 5 8 5 6 9 14 12 10 13 17 20 26 29 27 25 32 34 36 32 29
230 227 219 222 220 216 205 192 154 140 139 128 340 339 342 350 339 348 15 12 13 5 6 5 7 6 5 6 13 14 11 13 16 17 22 29 31 34 38 37 35 34 33
257 234 214 215 215 210 194 180 155 156 168 226 299 301 317 320 335 350 4 11 13 12 5 6 5 7 4 5 10 14 12 13 17 17 20 26 33 38 31 37 41 30 20
255 237 216 212 208 196 187 171 165 180 209 243 286 317 316 350 345 7 10 4 8 11 10 4 4 5 3 4 7 12 13 13 16 18 19 24 29 36 34 36 34 35 37
245 225 215 212 197 187 179 175 185 207 222 256 269 296 294 306 311 323 340 345 358 4 9 6 2 1 3 2 5 8 13 13 14 18 18 20 25 30 32 32 35 36 37
234 204 209 203 187 185 182 194 206 221 235 260 258 282 273 276 286 299 319 343 350 349 357 7 3 358 1 359 2 6 11 13 13 17 17 18 22 27 29 30 37 40 39
222 196 199 192 193 191 196 207 217 231 244 263 272 287 241 263 288 283 291 326 334 342 342 353 2 355 354 355 356 1 7 10 12 15 19 18 18 23 24 26 34 38 40
211 191 194 196 198 203 209 216 228 240 252 266 276 289 288 289 265 299 299 304 312 324 327 332 349 354 348 351 351 356 0 5 6 13 16 18 18 21 24 27 34 35 33
199 199 199 201 207 214 220 227 236 246 256 264 273 280 278 286 278 294 283 286 295 303 314 315 332 347 344 342 348 349 354 2 3 5 13 15 14 18 22 25 28 37 39
200 201 206 210 216 223 229 234 242 250 258 264 270 278 281 286 297 297 298 293 304 311 305 302 327 333 339 334 338 343 347 351 0 358 6 11 12 12 16 22 27 31 39
197 205 213 217 222 227 233 238 244 249 256 262 267 276 277 287 294 295 294 290 294 295 305 308 306 309 318 325 325 335 338 340 345 357 352 8 8 9 9 17 22 26 32
196 198 214 222 225 231 238 243 247 252 258 266 266 272 276 279 280 280 280 283 285 287 291 291 294 310 297 313 313 316 325 330 332 340 345 348 3 5 4 5 14 21 25
201 191 208 220 224 229 236 239 244 252 257 264 267 270 273 278 280 280 281 277 277 277 284 280 283 298 284 294 300 300 307 318 318 325 331 335 339 354 1 3 4 12 19
226 213 216 219 225 229 239 245 253 261 264 268 275 277 272 273 279 277 275 275 280 283 281 275 280 280 279 277 288 289 291 301 309 308 312 319 322 331 341 356 360 3 9
226 231 233 234 234 240 245 253 258 266 269 272 275 275 276 276 273 273 272 283 277 277 276 272 274 266 264 268 280 284 282 290 294 299 300 303 306 312 316 328 346 352 357
225 242 246 249 248 249 250 254 259 268 272 274 276 273 272 272 270 271 279 274 270 274 274 262 257 257 264 263 268 276 278 273 285 283 289 288 294 293 300 302 319 335 343
248 238 241 242 246 247 251 255 261 267 272 272 279 278 272 269 268 266 263 264 268 268 276 256 248 253 258 263 268 270 271 264 270 275 277 277 277 286 280 291 301 302 313
Height
5939 5941 5942 5943 5945 5947 5949 5948 5948 5948 5948 5947 5946 5945 5943 5940 5936 5932 5928 5922 5917 5911 5906 5899 5891 5882 5873 5865 5856 5845 5834 5822 5811 5800 5790 5782 5772 5761 5752 5743 5736 5728 5725
5937 5939 5941 5942 5944 5946 5947 5947 5948 5947 5948 5948 5947 5946 5944 5940 5936 5932 5927 5922 5917 5912 5905 5898 5890 5881 5872 5863 5853 5841 5831 5819 5808 5797 5788 5779 5768 5758 5750 5741 5733 5727 5723
5934 5937 5939 5941 5943 5945 5946 5946 5947 5947 5948 5948 5948 5947 5945 5941 5937 5932 5927 5923 5917 5912 5905 5898 5889 5880 5871 5862 5852 5840 5829 5818 5806 5796 5787 5777 5767 5758 5749 5741 5734 5728 5725
5932 5935 5937 5939 5942 5944 5945 5946 5946 5947 5948 5948 5948 5947 5945 5942 5937 5932 5928 5923 5918 5912 5905 5898 5889 5880 5871 5861 5851 5839 5829 5818 5806 5797 5787 5776 5767 5760 5751 5742 5736 5730 5728
5929 5932 5934 5937 5940 5942 5943 5944 5945 5946 5947 5948 5948 5947 5945 5942 5937 5932 5928 5923 5918 5912 5905 5898 5889 5881 5872 5862 5852 5841 5830 5818 5807 5798 5789 5780 5771 5763 5756 5747 5740 5735 5731
5926 5928 5932 5936 5938 5939 5941 5942 5943 5945 5946 5947 5947 5946 5944 5942 5938 5933 5928 5923 5918 5913 5906 5898 5890 5881 5873 5864 5853 5843 5832 5820 5810 5800 5792 5784 5774 5768 5759 5750 5744 5739 5735
5923 5927 5930 5933 5935 5938 5939 5940 5942 5944 5946 5947 5947 5946 5944 5942 5938 5934 5928 5923 5919 5913 5906 5899 5891 5883 5876 5867 5856 5846 5835 5823 5813 5804 5796 5787 5778 5771 5764 5755 5748 5743 5739
5920 5924 5928 5930 5932 5936 5937 5939 5941 5943 5945 5946 5946 5945 5944 5941 5939 5934 5929 5924 5919 5914 5907 5900 5893 5885 5877 5869 5860 5851 5840 5828 5818 5808 5799 5790 5781 5774 5768 5760 5754 5748 5744
5915 5919 5923 5927 5929 5933 5935 5937 5939 5942 5944 5945 5945 5945 5943 5941 5938 5934 5929 5924 5919 5915 5908 5901 5894 5887 5879 5872 5863 5855 5845 5834 5823 5814 5804 5795 5786 5777 5770 5763 5757 5753 5748
5910 5914 5919 5922 5926 5929 5932 5935 5938 5941 5943 5944 5944 5944 5942 5941 5938 5934 5930 5925 5920 5915 5909 5903 5896 5889 5882 5875 5867 5859 5851 5840 5830 5820 5812 5802 5792 5784 5777 5769 5762 5757 5752
5907 5910 5914 5918 5922 5925 5929 5933 5936 5939 5941 5942 5943 5943 5941 5939 5937 5934 5930 5926 5921 5915 5910 5904 5898 5891 5884 5878 5871 5863 5856 5847 5837 5827 5817 5808 5801 5792 5784 5776 5769 5763 5758
5905 5906 5908 5913 5918 5922 5926 5930 5934 5937 5939 5940 5941 5940 5939 5937 5935 5932 5930 5926 5921 5916 5911 5905 5899 5893 5887 5881 5874 5867 5860 5853 5844 5835 5824 5816 5810 5802 5794 5787 5778 5772 5763
5901 5902 5905 5909 5914 5919 5924 5928 5931 5934 5936 5937 5938 5936 5936 5935 5934 5931 5929 5925 5921 5916 5911 5906 5901 5895 5889 5883 5878 5870 5864 5859 5850 5842 5832 5824 5817 5811 5804 5796 5788 5780 5770
5897 5898 5902 5907 5910 5917 5921 5925 5928 5930 5932 5934 5934 5933 5933 5933 5931 5929 5927 5924 5920 5916 5912 5907 5902 5897 5892 5886 5881 5875 5869 5863 5856 5849 5839 5832 5824 5817 5811 5804 5796 5789 5782
5891 5893 5898 5903 5908 5913 5918 5922 5924 5926 5928 5929 5929 5930 5930 5930 5928 5926 5924 5922 5919 5917 5913 5907 5903 5898 5893 5888 5883 5878 5872 5866 5861 5854 5847 5839 5831 5824 5817 5811 5806 5799 5792
5886 5888 5893 5899 5905 5909 5914 5917 5920 5922 5923 5924 5924 5926 5924 5924 5924 5923 5922 5919 5917 5914 5912 5908 5903 5898 5895 5890 5885 5880 5875 5869 5865 5859 5853 5846 5839 5831 5825 5819 5813 5807 5802
5879 5882 5889 5894 5899 5904 5908 5912 5914 5916 5918 5919 5920 5921 5920 5921 5918 5918 5918 5916 5913 5912 5909 5907 5903 5899 5896 5891 5887 5883 5878 5872 5868 5864 5858 5852 5845 5838 5833 5827 5821 5814 5810
5872 5878 5883 5889 5894 5899 5902 5906 5908 5910 5912 5913 5914 5914 5915 5916 5915 5913 5913 5913 5910 5908 5906 5903 5902 5898 5895 5892 5888 5883 5878 5874 5869 5867 5862 5856 5851 5846 5840 5834 5829 5823 5817
5865 5871 5878 5883 5887 5892 5895 5899 5901 5903 5905 5906 5907 5907 5908 5907 5908 5908 5907 5907 5905 5905 5903 5900 5900 5896 5894 5891 5888 5884 5880 5876 5872 5868 5865 5860 5855 5852 5847 5842 5836 5831 5826
5857 5865 5871 5874 5879 5883 5887 5890 5892 5894 5896 5897 5898 5899 5900 5900 5900 5901 5901 5901 5899 5899 5899 5896 5895 5894 5892 5889 5887 5884 5880 5876 5873 5869 5866 5863 5859 5855 5852 5848 5844 5839 5833
5846 5852 5861 5865 5870 5874 5877 5881 5884 5887 5888 5890 5891 5891 5891 5892 5892 5894 5894 5893 5891 5891 5891 5890 5889 5890 5887 5885 5883 5882 5879 5877 5873 5870 5866 5864 5861 5859 5855 5853 5849 5845 5840
5835 5833 5848 5855 5859 5862 5866 5870 5874 5876 5878 5879 5878 5879 5881 5881 5882 5883 5884 5884 5882 5883 5883 5883 5881 5883 5883 5881 5878 5877 5877 5875 5872 5870 5866 5864 5861 5859 5856 5855 5851 5849 5846
5823 5826 5832 5841 5846 5851 5855 5859 5862 5864 5865 5865 5866 5867 5868 5869 5871 5871 5873 5874 5873 5873 5873 5872 5872 5874 5874 5873 5874 5873 5873 5872 5871 5868 5866 5863 5861 5860 5857 5856 5854 5851 5848
5815 5819 5825 5830 5835 5840 5844 5848 5850 5852 5852 5852 5855 5855 5856 5857 5859 5859 5861 5862 5860 5859 5861 5861 5863 5865 5865 5865 5867 5868 5868 5868 5868 5866 5864 5862 5859 5858 5857 5855 5854 5853 5851
5799 5810 5814 5818 5823 5829 5833 5837 5840 5840 5840 5842 5842 5843 5843 5844 5845 5846 5846 5849 5848 5848 5851 5853 5855 5855 5856 5857 5858 5861 5862 5862 5862 5862 5862 5861 5859 5856 5855 5854 5853 5852 5851
5793 5798 5803 5808 5812 5817 5822 5826 5828 5829 5830 5831 5832 5832 5831 5832 5832 5833 5835 5837 5837 5838 5840 5840 5845 5846 5847 5849 5849 5852 5854 5855 5855 5856 5857 5857 5856 5854 5852 5851 5851 5850 5848